Time,TemperatureF,DewpointF,PressureIn,WindDirection,WindDirectionDegrees,WindSpeedMPH,WindSpeedGustMPH,Humidity,HourlyPrecipIn,Conditions,Clouds,dailyrainin,SoftwareType,DateUTC
2013-03-28 00:09:00,37.8,27.8,30.06,SSE,157,1.1,-999.0,67,-99.99,,,0.00,Acu-Link.com,2013-03-28 04:09:00,
2013-03-28 00:24:00,37.0,27.8,30.06,South,180,0.0,-999.0,69,-99.99,,,0.00,Acu-Link.com,2013-03-28 04:24:00,
2013-03-28 00:39:00,36.5,27.7,30.06,South,180,0.0,-999.0,70,-99.99,,,0.00,Acu-Link.com,2013-03-28 04:39:00,
2013-03-28 00:54:00,36.1,28.0,30.06,SSW,202,0.0,-999.0,72,-99.99,,,0.00,Acu-Link.com,2013-03-28 04:54:00,
2013-03-28 01:10:00,34.9,27.5,30.05,SSW,202,0.0,-999.0,74,-99.99,,,0.00,Acu-Link.com,2013-03-28 05:10:00,
2013-03-28 01:25:00,35.2,28.1,30.05,South,180,0.0,-999.0,75,-99.99,,,0.00,Acu-Link.com,2013-03-28 05:25:00,
2013-03-28 01:40:00,35.2,28.1,30.06,South,180,0.0,-999.0,75,-99.99,,,0.00,Acu-Link.com,2013-03-28 05:40:00,
2013-03-28 01:55:00,34.5,27.7,30.06,West,270,0.0,-999.0,76,-99.99,,,0.00,Acu-Link.com,2013-03-28 05:55:00,
2013-03-28 02:10:00,34.5,27.7,30.06,South,180,0.0,-999.0,76,-99.99,,,0.00,Acu-Link.com,2013-03-28 06:10:00,
2013-03-28 02:26:00,34.3,27.9,30.06,SSW,202,1.6,-999.0,77,-99.99,,,0.00,Acu-Link.com,2013-03-28 06:26:00,
2013-03-28 02:41:00,34.5,28.4,30.05,South,180,0.0,-999.0,78,-99.99,,,0.00,Acu-Link.com,2013-03-28 06:41:00,
2013-03-28 02:56:00,33.6,28.1,30.05,SSW,202,0.0,-999.0,80,-99.99,,,0.00,Acu-Link.com,2013-03-28 06:56:00,
2013-03-28 03:11:00,32.5,27.7,30.05,South,180,0.0,-999.0,82,-99.99,,,0.00,Acu-Link.com,2013-03-28 07:11:00,
2013-03-28 03:27:00,32.4,27.5,30.06,South,180,0.0,-999.0,82,-99.99,,,0.00,Acu-Link.com,2013-03-28 07:27:00,
2013-03-28 03:42:00,32.2,27.0,30.05,West,270,0.0,-999.0,81,-99.99,,,0.00,Acu-Link.com,2013-03-28 07:42:00,
2013-03-28 03:57:00,30.6,27.4,30.05,SW,225,0.0,-999.0,88,-99.99,,,0.00,Acu-Link.com,2013-03-28 07:57:00,
2013-03-28 04:13:00,30.4,27.3,30.06,SW,225,1.6,-999.0,88,-99.99,,,0.00,Acu-Link.com,2013-03-28 08:13:00,
2013-03-28 04:28:00,30.0,27.2,30.05,SSW,202,2.2,-999.0,89,-99.99,,,0.00,Acu-Link.com,2013-03-28 08:28:00,
2013-03-28 04:43:00,31.1,26.8,30.05,South,180,0.0,-999.0,84,-99.99,,,0.00,Acu-Link.com,2013-03-28 08:43:00,
2013-03-28 04:58:00,32.2,27.0,30.06,SSE,157,0.0,-999.0,81,-99.99,,,0.00,Acu-Link.com,2013-03-28 08:58:00,
2013-03-28 05:13:00,33.1,27.3,30.05,SSE,157,0.0,-999.0,79,-99.99,,,0.00,Acu-Link.com,2013-03-28 09:13:00,
2013-03-28 05:28:00,30.7,26.8,30.05,WSW,247,0.0,-999.0,85,-99.99,,,0.00,Acu-Link.com,2013-03-28 09:28:00,
2013-03-28 05:44:00,29.1,26.8,30.06,SSW,202,0.0,-999.0,91,-99.99,,,0.00,Acu-Link.com,2013-03-28 09:44:00,
2013-03-28 05:59:00,28.6,26.3,30.06,South,180,0.0,-999.0,91,-99.99,,,0.00,Acu-Link.com,2013-03-28 09:59:00,
2013-03-28 06:14:00,28.4,26.4,30.07,SSW,202,1.6,-999.0,92,-99.99,,,0.00,Acu-Link.com,2013-03-28 10:14:00,
2013-03-28 06:29:00,30.6,26.3,30.08,SSW,202,0.0,-999.0,84,-99.99,,,0.00,Acu-Link.com,2013-03-28 10:29:00,
2013-03-28 06:45:00,30.4,26.4,30.09,SSW,202,0.0,-999.0,85,-99.99,,,0.00,Acu-Link.com,2013-03-28 10:45:00,
2013-03-28 07:00:00,30.7,26.2,30.09,SSE,157,0.0,-999.0,83,-99.99,,,0.00,Acu-Link.com,2013-03-28 11:00:00,
2013-03-28 07:15:00,30.4,26.4,30.09,SSE,157,0.0,-999.0,85,-99.99,,,0.00,Acu-Link.com,2013-03-28 11:15:00,
2013-03-28 07:30:00,30.7,26.5,30.10,South,180,0.0,-999.0,84,-99.99,,,0.00,Acu-Link.com,2013-03-28 11:30:00,
2013-03-28 07:45:00,31.1,26.6,30.10,SW,225,0.0,-999.0,83,-99.99,,,0.00,Acu-Link.com,2013-03-28 11:45:00,
2013-03-28 08:01:00,30.6,26.6,30.11,South,180,0.0,-999.0,85,-99.99,,,0.00,Acu-Link.com,2013-03-28 12:01:00,
2013-03-28 08:16:00,32.0,27.1,30.10,South,180,0.0,-999.0,82,-99.99,,,0.00,Acu-Link.com,2013-03-28 12:16:00,
2013-03-28 08:31:00,32.9,27.7,30.10,NNE,22,0.0,-999.0,81,-99.99,,,0.00,Acu-Link.com,2013-03-28 12:31:00,
2013-03-28 08:46:00,34.9,28.1,30.11,SSW,202,1.1,-999.0,76,-99.99,,,0.00,Acu-Link.com,2013-03-28 12:46:00,
2013-03-28 09:01:00,35.8,29.3,30.11,South,180,0.0,-999.0,77,-99.99,,,0.00,Acu-Link.com,2013-03-28 13:01:00,
2013-03-28 09:17:00,36.7,29.8,30.12,South,180,1.6,-999.0,76,-99.99,,,0.00,Acu-Link.com,2013-03-28 13:17:00,
2013-03-28 09:32:00,39.0,31.1,30.12,SW,225,1.1,-999.0,73,-99.99,,,0.00,Acu-Link.com,2013-03-28 13:32:00,
2013-03-28 09:47:00,42.1,32.7,30.12,SSW,202,1.6,-999.0,69,-99.99,,,0.00,Acu-Link.com,2013-03-28 13:47:00,
2013-03-28 10:02:00,45.1,30.4,30.12,North,0,2.2,-999.0,56,-99.99,,,0.00,Acu-Link.com,2013-03-28 14:02:00,
2013-03-28 10:17:00,48.6,29.8,30.12,West,270,2.2,-999.0,48,-99.99,,,0.00,Acu-Link.com,2013-03-28 14:17:00,
2013-03-28 10:33:00,49.8,28.2,30.12,NNE,22,1.6,-999.0,43,-99.99,,,0.00,Acu-Link.com,2013-03-28 14:33:00,
2013-03-28 10:48:00,46.8,27.1,30.13,WNW,292,2.2,-999.0,46,-99.99,,,0.00,Acu-Link.com,2013-03-28 14:48:00,
2013-03-28 11:03:00,48.2,27.3,30.12,WNW,292,2.2,-999.0,44,-99.99,,,0.00,Acu-Link.com,2013-03-28 15:03:00,
2013-03-28 11:18:00,49.1,27.6,30.12,WSW,247,3.8,-999.0,43,-99.99,,,0.00,Acu-Link.com,2013-03-28 15:18:00,
2013-03-28 11:34:00,50.4,28.1,30.12,WNW,292,3.8,-999.0,42,-99.99,,,0.00,Acu-Link.com,2013-03-28 15:34:00,
2013-03-28 11:49:00,52.0,28.4,30.12,NW,315,5.1,-999.0,40,-99.99,,,0.00,Acu-Link.com,2013-03-28 15:49:00,
2013-03-28 12:04:00,51.8,27.6,30.12,NW,315,2.7,-999.0,39,-99.99,,,0.00,Acu-Link.com,2013-03-28 16:04:00,
2013-03-28 12:19:00,53.2,27.0,30.12,NNW,337,4.3,-999.0,36,-99.99,,,0.00,Acu-Link.com,2013-03-28 16:19:00,
2013-03-28 12:34:00,54.0,29.6,30.11,West,270,3.8,-999.0,39,-99.99,,,0.00,Acu-Link.com,2013-03-28 16:34:00,
2013-03-28 12:50:00,55.4,28.2,30.10,South,180,4.3,-999.0,35,-99.99,,,0.00,Acu-Link.com,2013-03-28 16:50:00,
2013-03-28 13:05:00,56.5,29.2,30.10,South,180,3.8,-999.0,35,-99.99,,,0.00,Acu-Link.com,2013-03-28 17:05:00,
2013-03-28 13:20:00,57.6,29.4,30.09,ESE,112,2.7,-999.0,34,-99.99,,,0.00,Acu-Link.com,2013-03-28 17:20:00,
2013-03-28 13:35:00,57.0,24.2,30.09,South,180,5.1,-999.0,28,-99.99,,,0.00,Acu-Link.com,2013-03-28 17:35:00,
2013-03-28 13:50:00,59.0,28.4,30.08,West,270,5.1,-999.0,31,-99.99,,,0.00,Acu-Link.com,2013-03-28 17:50:00,
2013-03-28 14:06:00,59.5,27.3,30.08,WNW,292,6.7,-999.0,29,-99.99,,,0.00,Acu-Link.com,2013-03-28 18:06:00,
2013-03-28 14:36:00,59.9,30.0,30.07,WSW,247,4.3,-999.0,32,-99.99,,,0.00,Acu-Link.com,2013-03-28 18:36:00,
2013-03-28 14:51:00,59.9,30.0,30.06,WNW,292,5.1,-999.0,32,-99.99,,,0.00,Acu-Link.com,2013-03-28 18:51:00,
2013-03-28 15:06:00,59.5,30.4,30.05,West,270,4.3,-999.0,33,-99.99,,,0.00,Acu-Link.com,2013-03-28 19:06:00,
2013-03-28 15:22:00,62.1,32.6,30.04,SW,225,4.7,-999.0,33,-99.99,,,0.00,Acu-Link.com,2013-03-28 19:22:00,
2013-03-28 15:37:00,60.6,30.6,30.03,SE,135,4.3,-999.0,32,-99.99,,,0.00,Acu-Link.com,2013-03-28 19:37:00,
2013-03-28 15:52:00,62.2,32.0,30.02,NW,315,3.8,-999.0,32,-99.99,,,0.00,Acu-Link.com,2013-03-28 19:52:00,
2013-03-28 16:07:00,62.6,31.5,30.02,SSW,202,4.7,-999.0,31,-99.99,,,0.00,Acu-Link.com,2013-03-28 20:07:00,
2013-03-28 16:23:00,61.7,32.3,30.01,West,270,8.3,-999.0,33,-99.99,,,0.00,Acu-Link.com,2013-03-28 20:23:00,
2013-03-28 16:38:00,61.0,32.4,30.01,WNW,292,5.1,-999.0,34,-99.99,,,0.00,Acu-Link.com,2013-03-28 20:38:00,
2013-03-28 16:53:00,62.1,35.5,30.01,WNW,292,3.1,-999.0,37,-99.99,,,0.00,Acu-Link.com,2013-03-28 20:53:00,
2013-03-28 17:08:00,60.6,34.2,30.01,West,270,3.8,-999.0,37,-99.99,,,0.00,Acu-Link.com,2013-03-28 21:08:00,
2013-03-28 17:23:00,60.8,34.4,30.01,NNW,337,5.1,-999.0,37,-99.99,,,0.00,Acu-Link.com,2013-03-28 21:23:00,
2013-03-28 17:39:00,60.1,33.7,30.01,West,270,3.8,-999.0,37,-99.99,,,0.00,Acu-Link.com,2013-03-28 21:39:00,
2013-03-28 17:54:00,59.2,34.2,30.02,West,270,7.4,-999.0,39,-99.99,,,0.00,Acu-Link.com,2013-03-28 21:54:00,
2013-03-28 18:09:00,58.3,34.1,30.03,WNW,292,10.3,-999.0,40,-99.99,,,0.00,Acu-Link.com,2013-03-28 22:09:00,
2013-03-28 18:24:00,57.7,34.2,30.03,NW,315,4.7,-999.0,41,-99.99,,,0.00,Acu-Link.com,2013-03-28 22:24:00,
2013-03-28 18:39:00,57.0,34.2,30.03,WSW,247,4.3,-999.0,42,-99.99,,,0.00,Acu-Link.com,2013-03-28 22:39:00,
2013-03-28 18:55:00,56.8,34.0,30.03,WNW,292,7.4,-999.0,42,-99.99,,,0.00,Acu-Link.com,2013-03-28 22:55:00,
2013-03-28 19:10:00,56.1,33.9,30.04,NNW,337,4.3,-999.0,43,-99.99,,,0.00,Acu-Link.com,2013-03-28 23:10:00,
2013-03-28 19:25:00,55.4,34.4,30.04,NE,45,2.7,-999.0,45,-99.99,,,0.00,Acu-Link.com,2013-03-28 23:25:00,
2013-03-28 19:40:00,54.5,34.1,30.05,NNW,337,1.1,-999.0,46,-99.99,,,0.00,Acu-Link.com,2013-03-28 23:40:00,
2013-03-28 19:55:00,54.0,34.7,30.05,West,270,2.7,-999.0,48,-99.99,,,0.00,Acu-Link.com,2013-03-28 23:55:00,
2013-03-28 20:11:00,52.9,34.2,30.05,SSW,202,0.0,-999.0,49,-99.99,,,0.00,Acu-Link.com,2013-03-29 00:11:00,
2013-03-28 20:26:00,51.3,33.8,30.06,SSW,202,0.0,-999.0,51,-99.99,,,0.00,Acu-Link.com,2013-03-29 00:26:00,
2013-03-28 20:41:00,50.0,33.6,30.06,SW,225,0.0,-999.0,53,-99.99,,,0.00,Acu-Link.com,2013-03-29 00:41:00,
2013-03-28 20:56:00,49.6,33.7,30.06,SSW,202,0.0,-999.0,54,-99.99,,,0.00,Acu-Link.com,2013-03-29 00:56:00,
2013-03-28 21:11:00,49.3,33.8,30.06,South,180,0.0,-999.0,55,-99.99,,,0.00,Acu-Link.com,2013-03-29 01:11:00,
2013-03-28 21:27:00,48.4,33.0,30.07,South,180,0.0,-999.0,55,-99.99,,,0.00,Acu-Link.com,2013-03-29 01:27:00,
2013-03-28 21:42:00,47.5,33.0,30.08,SSW,202,0.0,-999.0,57,-99.99,,,0.00,Acu-Link.com,2013-03-29 01:42:00,
2013-03-28 22:12:00,46.2,34.3,30.08,North,0,0.0,-999.0,63,-99.99,,,0.00,Acu-Link.com,2013-03-29 02:12:00,
2013-03-28 22:28:00,44.6,34.0,30.08,SSW,202,0.0,-999.0,66,-99.99,,,0.00,Acu-Link.com,2013-03-29 02:28:00,
2013-03-28 22:43:00,43.9,33.6,30.09,South,180,1.1,-999.0,67,-99.99,,,0.00,Acu-Link.com,2013-03-29 02:43:00,
2013-03-28 22:58:00,43.7,33.8,30.10,SSW,202,0.0,-999.0,68,-99.99,,,0.00,Acu-Link.com,2013-03-29 02:58:00,
2013-03-28 23:13:00,43.2,33.0,30.10,South,180,0.0,-999.0,67,-99.99,,,0.00,Acu-Link.com,2013-03-29 03:13:00,
2013-03-28 23:28:00,42.3,33.2,30.10,South,180,2.2,-999.0,70,-99.99,,,0.00,Acu-Link.com,2013-03-29 03:28:00,
2013-03-28 23:44:00,42.3,32.8,30.10,South,180,0.0,-999.0,69,-99.99,,,0.00,Acu-Link.com,2013-03-29 03:44:00,
2013-03-28 23:59:00,41.4,33.4,30.10,SSW,202,0.0,-999.0,73,-99.99,,,0.00,Acu-Link.com,2013-03-29 03:59:00,